Voltar ao catálogo

COSMOS 1691 DEB

AtivoPO
NORAD 16266·DEBRIS·🇷🇺 Russia

Lançado Oct 9, 1985 de Plesetsk Cosmodrome

Loading…

Próximas Passagens (próximas 24 horas)

TLE

AtualizadoSource: Space-Track

Época: Sep 14, 2026, 06:45 UTC

1 16266U 85094K   26257.28134031  .00000262  00000-0  13236-2 0  9998
2 16266  82.6047 189.2189 0008312  96.7714  57.1863 12.66762124888760

Acompanhe COSMOS 1691 DEB em tempo real com AllMySat

Download on the App Store